TimeEST,TemperatureF,Dew PointF,Humidity,Sea Level PressureIn,VisibilityMPH,Wind Direction,Wind SpeedMPH,Gust SpeedMPH,PrecipitationIn,Events,Conditions,WindDirDegrees,DateUTC
12:15 AM,29.8,19.6,66,30.32,10.0,Calm,Calm,-,N/A,,Clear,0,2013-01-05 05:15:00
12:35 AM,29.1,19.8,68,30.31,10.0,Calm,Calm,-,N/A,,Clear,0,2013-01-05 05:35:00
12:55 AM,29.1,19.8,68,30.31,10.0,Calm,Calm,-,N/A,,Clear,0,2013-01-05 05:55:00
1:15 AM,26.6,20.1,77,30.31,10.0,North,3.5,-,N/A,,Clear,350,2013-01-05 06:15:00
1:35 AM,27.0,19.8,74,30.31,10.0,Calm,Calm,-,N/A,,Clear,0,2013-01-05 06:35:00
1:55 AM,29.7,19.4,66,30.32,10.0,North,4.6,-,N/A,,Clear,360,2013-01-05 06:55:00
2:15 AM,27.1,19.8,74,30.32,10.0,Calm,Calm,-,N/A,,Clear,0,2013-01-05 07:15:00
2:35 AM,26.2,19.0,74,30.32,10.0,Calm,Calm,-,N/A,,Clear,0,2013-01-05 07:35:00
2:55 AM,27.7,19.4,71,30.32,10.0,Calm,Calm,-,N/A,,Clear,0,2013-01-05 07:55:00
3:15 AM,27.3,19.4,72,30.32,10.0,Calm,Calm,-,N/A,,Clear,0,2013-01-05 08:15:00
3:35 AM,26.4,19.4,75,30.33,10.0,Calm,Calm,-,N/A,,Clear,0,2013-01-05 08:35:00
3:55 AM,26.2,19.4,75,30.33,10.0,Calm,Calm,-,N/A,,Clear,0,2013-01-05 08:55:00
4:15 AM,25.3,19.4,78,30.32,10.0,NNW,4.6,-,N/A,,Clear,330,2013-01-05 09:15:00
4:35 AM,27.0,19.2,73,30.32,10.0,North,4.6,-,N/A,,Clear,350,2013-01-05 09:35:00
4:55 AM,27.1,18.7,70,30.31,10.0,North,3.5,-,N/A,,Clear,360,2013-01-05 09:55:00
5:15 AM,27.5,19.0,71,30.31,10.0,North,5.8,-,N/A,,Clear,360,2013-01-05 10:15:00
5:35 AM,27.1,18.5,70,30.31,10.0,Calm,Calm,-,N/A,,Clear,0,2013-01-05 10:35:00
5:55 AM,25.7,18.7,75,30.31,10.0,Calm,Calm,-,N/A,,Clear,0,2013-01-05 10:55:00
6:15 AM,26.4,18.9,73,30.31,10.0,NW,5.8,-,N/A,,Clear,320,2013-01-05 11:15:00
6:35 AM,24.4,18.7,79,30.32,10.0,West,3.5,-,N/A,,Clear,280,2013-01-05 11:35:00
6:55 AM,24.3,19.4,82,30.33,10.0,NW,4.6,-,N/A,,Clear,310,2013-01-05 11:55:00
7:15 AM,25.7,18.7,75,30.33,10.0,NNW,4.6,-,N/A,,Clear,330,2013-01-05 12:15:00
7:35 AM,26.2,18.5,73,30.34,10.0,NW,3.5,-,N/A,,Clear,320,2013-01-05 12:35:00
7:55 AM,26.1,18.9,74,30.35,10.0,WNW,3.5,-,N/A,,Clear,300,2013-01-05 12:55:00
8:35 AM,27.5,20.5,75,30.37,10.0,WNW,3.5,-,N/A,,Clear,290,2013-01-05 13:35:00
8:55 AM,30.9,21.9,69,30.37,10.0,Calm,Calm,-,N/A,,Clear,0,2013-01-05 13:55:00
9:15 AM,32.9,23.4,68,30.37,10.0,Calm,Calm,-,N/A,,Clear,0,2013-01-05 14:15:00
9:35 AM,36.0,23.0,59,30.38,10.0,Calm,Calm,-,N/A,,Clear,0,2013-01-05 14:35:00
9:55 AM,36.7,22.3,56,30.37,10.0,Calm,Calm,-,N/A,,Clear,0,2013-01-05 14:55:00
10:15 AM,38.1,21.9,52,30.38,10.0,SSW,3.5,-,N/A,,Clear,200,2013-01-05 15:15:00
10:55 AM,41.0,21.7,46,30.37,10.0,South,3.5,-,N/A,,Clear,180,2013-01-05 15:55:00
11:15 AM,41.4,22.1,46,30.36,10.0,South,4.6,-,N/A,,Clear,170,2013-01-05 16:15:00
11:55 AM,45.7,20.8,37,30.34,10.0,SSE,4.6,-,N/A,,Clear,160,2013-01-05 16:55:00
12:15 PM,46.6,20.5,36,30.32,10.0,South,4.6,-,N/A,,Clear,170,2013-01-05 17:15:00
12:35 PM,46.6,20.1,35,30.30,10.0,South,5.8,-,N/A,,Clear,180,2013-01-05 17:35:00
12:55 PM,48.6,20.1,33,30.30,10.0,SW,6.9,-,N/A,,Clear,220,2013-01-05 17:55:00
1:15 PM,48.4,20.8,34,30.30,10.0,South,8.1,-,N/A,,Clear,190,2013-01-05 18:15:00
1:35 PM,47.1,20.8,35,30.30,10.0,SSW,4.6,-,N/A,,Clear,200,2013-01-05 18:35:00
1:55 PM,48.2,21.2,34,30.28,10.0,South,6.9,-,N/A,,Clear,170,2013-01-05 18:55:00
2:15 PM,47.7,21.9,36,30.28,10.0,SSE,5.8,-,N/A,,Clear,160,2013-01-05 19:15:00
2:35 PM,46.9,21.2,36,30.28,10.0,South,8.1,-,N/A,,Clear,180,2013-01-05 19:35:00
2:55 PM,46.4,20.5,36,30.27,10.0,South,5.8,-,N/A,,Clear,170,2013-01-05 19:55:00
3:15 PM,46.9,21.0,36,30.28,10.0,South,5.8,-,N/A,,Clear,170,2013-01-05 20:15:00
3:35 PM,46.4,21.7,38,30.27,10.0,South,5.8,-,N/A,,Clear,170,2013-01-05 20:35:00
3:55 PM,46.2,21.6,38,30.27,10.0,South,4.6,-,N/A,,Clear,180,2013-01-05 20:55:00
4:15 PM,45.5,22.1,40,30.26,10.0,SSE,6.9,-,N/A,,Clear,150,2013-01-05 21:15:00
4:35 PM,45.0,22.6,41,30.27,10.0,South,6.9,-,N/A,,Clear,170,2013-01-05 21:35:00
4:55 PM,44.2,23.0,43,30.28,10.0,Calm,Calm,-,N/A,,Clear,0,2013-01-05 21:55:00
5:15 PM,43.7,23.5,45,30.28,10.0,Calm,Calm,-,N/A,,Clear,0,2013-01-05 22:15:00
5:55 PM,43.3,23.7,46,30.27,10.0,Calm,Calm,-,N/A,,Clear,0,2013-01-05 22:55:00
6:15 PM,43.3,23.0,45,30.28,10.0,Calm,Calm,-,N/A,,Clear,0,2013-01-05 23:15:00
6:35 PM,43.0,23.0,45,30.28,10.0,Calm,Calm,-,N/A,,Mostly Cloudy,0,2013-01-05 23:35:00
6:55 PM,42.8,23.7,47,30.28,10.0,SE,3.5,-,N/A,,Overcast,130,2013-01-05 23:55:00
7:15 PM,42.6,23.9,48,30.28,10.0,Calm,Calm,-,N/A,,Overcast,0,2013-01-06 00:15:00
7:35 PM,42.3,24.8,50,30.28,10.0,Calm,Calm,-,N/A,,Overcast,0,2013-01-06 00:35:00
7:55 PM,42.3,24.4,49,30.28,10.0,Calm,Calm,-,N/A,,Mostly Cloudy,0,2013-01-06 00:55:00
8:15 PM,42.1,25.7,52,30.29,10.0,Calm,Calm,-,N/A,,Overcast,0,2013-01-06 01:15:00
8:35 PM,42.1,24.4,50,30.27,10.0,SE,3.5,-,N/A,,Mostly Cloudy,130,2013-01-06 01:35:00
8:55 PM,40.8,27.9,60,30.28,10.0,SSE,3.5,-,N/A,,Scattered Clouds,160,2013-01-06 01:55:00
9:15 PM,41.0,27.7,59,30.29,10.0,South,4.6,-,N/A,,Mostly Cloudy,190,2013-01-06 02:15:00
9:35 PM,42.4,25.3,51,30.29,10.0,South,5.8,-,N/A,,Overcast,190,2013-01-06 02:35:00
9:55 PM,42.8,25.2,50,30.28,10.0,Calm,Calm,-,N/A,,Overcast,0,2013-01-06 02:55:00
10:15 PM,42.1,27.0,55,30.26,10.0,SSE,3.5,-,N/A,Rain,Light Rain,160,2013-01-06 03:15:00
10:35 PM,41.2,28.9,62,30.25,10.0,SSE,4.6,-,N/A,,Light Drizzle,160,2013-01-06 03:35:00
10:55 PM,40.8,29.7,64,30.24,10.0,Calm,Calm,-,N/A,Rain,Light Rain,0,2013-01-06 03:55:00
11:15 PM,41.0,29.3,63,30.24,10.0,Calm,Calm,-,N/A,,Mostly Cloudy,0,2013-01-06 04:15:00
11:35 PM,41.5,28.6,60,30.23,10.0,Calm,Calm,-,N/A,Rain,Rain,0,2013-01-06 04:35:00
11:55 PM,40.6,29.8,65,30.22,10.0,Calm,Calm,-,N/A,Rain,Rain,0,2013-01-06 04:55:00